SES-7 (PROTOSTAR 2)

Last updated on Fri Dec 19 2025 00:02:49 GMT+0000 (Coordinated Universal Time)

1 34941U 09027A 25352.64486697 -.00000320 00000+0 00000+0 0 9990 2 34941 0.0166 30.4257 0002012 218.9451 178.5433 1.00271043 60816
UTC large
Height (km)
Speed (km/s)
/
Latitude / Longitude
Inclination (degrees)
Orbital Period (minutes)
Azimuth
Elevation
Range (km)
Doppler Factor

Next 0 passes for location: London (51.5072 / 0.1276)

Sorry there are no passes over London.